Change the Weather History Date:

Tuesday, February 19, 2013

  Actual Average Record
Temperature  
Mean Temperature 20 °F -  
Max Temperature 32 °F 33 °F 52 °F (1981)
Min Temperature 8 °F 13 °F -16 °F (1979)
Degree Days  
Heating Degree Days 45    
Moisture  
Dew Point 11 °F    
Average Humidity 76    
Maximum Humidity 100    
Minimum Humidity 57    
Precipitation  
Precipitation 0.00 in - - ()
Sea Level Pressure  
Sea Level Pressure 29.75 in    
Wind  
Wind Speed 15 mph (WNW)    
Max Wind Speed 24 mph    
Max Gust Speed 32 mph    
Visibility 4 miles    
Events Snow    
Averages and records for this station are not official NWS values.
T = Trace of Precipitation, MM = Missing Value Source: NWS Daily Summary

Daily Weather History Graph

Daily Weather History Graph

Search for Another Location

Airport or City:

Trip Planner

Search our weather history database for the weather conditions in past years. The results will help you decide how hot, cold, wet, or windy it might be!

Date:

Astronomy

Feb. 19, 2013 Rise Set
Actual Time 6:48 AM CST 5:29 PM CST
Civil Twilight 6:18 AM CST 5:59 PM CST
Nautical Twilight 5:44 AM CST 6:33 PM CST
Astronomical Twilight 5:11 AM CST 7:07 PM CST
Moon 11:53 AM CST (2/19) 2:27 AM CST (2/19)
Length of Visible Light 11h 40m
Length of Day
10h 41m
Waxing Gibbous, 67% of the Moon is Illuminated
Feb 19
Waxing Gibbous
Feb 25
Full
Mar 4
Last Quarter
Mar 11
New
Mar 19
First Quarter

Hourly Weather History & Observations

Time (CST) Temp. Windchill Dew Point Humidity Pressure Visibility Wind Dir Wind Speed Gust Speed Precip Events Conditions
12:15 AM 32.0 °F 24.8 °F 32.0 °F 100% 29.43 in 1.5 mi WNW 8.1 mph - N/A Snow Light Snow
12:35 AM 32.0 °F 25.6 °F 32.0 °F 100% 29.44 in 1.5 mi WNW 6.9 mph - N/A Snow Light Snow
12:55 AM 32.0 °F 25.6 °F 32.0 °F 100% 29.44 in 1.2 mi West 6.9 mph - N/A Snow Light Snow
1:15 AM 32.0 °F 21.6 °F 32.0 °F 100% 29.44 in 1.5 mi West 15.0 mph 19.6 mph N/A Snow Light Snow
1:35 AM 32.0 °F 21.6 °F 30.2 °F 93% 29.45 in 1.8 mi WNW 15.0 mph 20.7 mph N/A Snow Light Snow
1:55 AM 30.2 °F 19.3 °F 30.2 °F 100% 29.45 in 1.2 mi WNW 15.0 mph 24.2 mph N/A Snow Light Snow
2:15 AM 30.2 °F 18.9 °F 28.4 °F 93% 29.44 in 1.8 mi WNW 16.1 mph 19.6 mph N/A Snow Light Snow
2:35 AM 30.2 °F 20.8 °F 28.4 °F 93% 29.44 in 2.0 mi WNW 11.5 mph - N/A Snow Light Snow
2:55 AM 30.2 °F 20.8 °F 28.4 °F 93% 29.44 in 4.0 mi WNW 11.5 mph - N/A Snow Light Snow
3:15 AM 30.2 °F 21.3 °F 28.4 °F 93% 29.45 in 3.0 mi West 10.4 mph - N/A Snow Light Snow
3:35 AM 28.4 °F 18.5 °F 26.6 °F 93% 29.45 in 3.0 mi West 11.5 mph 18.4 mph N/A Snow Light Snow
3:55 AM 28.4 °F 16.6 °F 26.6 °F 93% 29.46 in 2.0 mi West 16.1 mph 20.7 mph N/A Snow Light Snow
4:15 AM 26.6 °F 12.7 °F 23.0 °F 86% 29.47 in 2.0 mi WNW 20.7 mph 29.9 mph N/A Snow Light Snow
4:35 AM 26.6 °F 13.8 °F 23.0 °F 86% 29.49 in 2.5 mi WNW 17.3 mph 23.0 mph N/A Snow Light Snow
4:55 AM 23.0 °F 8.7 °F 21.2 °F 93% 29.50 in 2.5 mi WNW 18.4 mph 25.3 mph N/A Snow Light Snow
5:15 AM 23.0 °F 8.3 °F 21.2 °F 93% 29.51 in 3.0 mi WNW 19.6 mph 27.6 mph N/A Snow Light Snow
5:35 AM 23.0 °F 8.0 °F 19.4 °F 86% 29.52 in 2.0 mi WNW 20.7 mph 31.1 mph N/A Snow Light Snow
5:55 AM 21.2 °F 6.0 °F 19.4 °F 93% 29.54 in 3.0 mi WNW 19.6 mph 23.0 mph N/A Snow Light Snow
6:15 AM 21.2 °F 4.9 °F 17.6 °F 86% 29.56 in 3.0 mi WNW 23.0 mph 28.8 mph N/A Snow Light Snow
6:35 AM 21.2 °F 6.8 °F 15.8 °F 80% 29.57 in 4.0 mi NW 17.3 mph 32.2 mph N/A Snow Light Snow
6:55 AM 19.4 °F 5.0 °F 15.8 °F 86% 29.59 in 1.5 mi WNW 16.1 mph 21.9 mph N/A Snow Light Snow
7:15 AM 19.4 °F 2.5 °F 14.0 °F 80% 29.61 in 1.5 mi NW 23.0 mph 29.9 mph N/A Snow Light Snow
7:35 AM 17.6 °F 1.7 °F 14.0 °F 86% 29.61 in 1.5 mi WNW 18.4 mph 27.6 mph N/A Snow Light Snow
7:55 AM 17.6 °F 1.7 °F 12.2 °F 79% 29.62 in 1.5 mi WNW 18.4 mph 28.8 mph N/A Snow Light Snow
8:15 AM 17.6 °F 1.7 °F 12.2 °F 79% 29.64 in 1.5 mi NW 18.4 mph 25.3 mph N/A Snow Light Snow
8:35 AM 15.8 °F -1.5 °F 10.4 °F 79% 29.65 in 1.2 mi NW 20.7 mph 28.8 mph N/A Snow Light Snow
8:55 AM 15.8 °F -0.6 °F 10.4 °F 79% 29.66 in 1.5 mi NW 18.4 mph 26.5 mph N/A Snow Light Snow
9:15 AM 15.8 °F -2.3 °F 10.4 °F 79% 29.66 in 1.5 mi NW 23.0 mph 29.9 mph N/A Snow Light Snow
9:35 AM 14.0 °F -3.9 °F 8.6 °F 79% 29.67 in 1.5 mi NW 20.7 mph 27.6 mph N/A Snow Light Snow
9:55 AM 14.0 °F -3.4 °F 8.6 °F 79% 29.69 in 1.0 mi NW 19.6 mph 27.6 mph N/A Snow Light Snow
10:15 AM 14.0 °F -3.4 °F 8.6 °F 79% 29.69 in 1.2 mi WNW 19.6 mph 29.9 mph N/A Snow Light Snow
10:35 AM 14.0 °F -4.7 °F 8.6 °F 79% 29.71 in 2.5 mi NW 23.0 mph 27.6 mph N/A   Haze
11:15 AM 14.0 °F -4.7 °F 6.8 °F 73% 29.73 in 2.5 mi WNW 23.0 mph 26.5 mph N/A Snow Light Snow
11:35 AM 12.2 °F -5.8 °F 5.0 °F 73% 29.74 in 1.5 mi WNW 19.6 mph 27.6 mph N/A Snow Light Snow
11:55 AM 12.2 °F -5.3 °F 5.0 °F 73% 29.75 in 1.5 mi NW 18.4 mph 27.6 mph N/A Snow Light Snow
12:15 PM 12.2 °F -5.8 °F 5.0 °F 73% 29.76 in 1.2 mi WNW 19.6 mph 29.9 mph N/A Snow Light Snow
12:35 PM 12.2 °F -5.8 °F 5.0 °F 73% 29.77 in 1.2 mi WNW 19.6 mph 27.6 mph N/A Snow Light Snow
12:55 PM 12.2 °F -7.1 °F 5.0 °F 73% 29.78 in 2.0 mi WNW 23.0 mph 27.6 mph N/A   Haze
1:15 PM 12.2 °F -7.1 °F 5.0 °F 73% 29.78 in 2.5 mi WNW 23.0 mph 29.9 mph N/A   Haze
1:35 PM 14.0 °F -5.1 °F 3.2 °F 62% 29.80 in 3.0 mi WNW 24.2 mph 29.9 mph N/A   Haze
1:55 PM 14.0 °F -2.5 °F 3.2 °F 62% 29.81 in 4.0 mi WNW 17.3 mph 27.6 mph N/A   Haze
2:15 PM 14.0 °F -2.5 °F 3.2 °F 62% 29.82 in 4.0 mi WNW 17.3 mph 23.0 mph N/A   Haze
2:35 PM 14.0 °F -3.9 °F 3.2 °F 62% 29.84 in 4.0 mi WNW 20.7 mph 26.5 mph N/A   Haze
2:55 PM 14.0 °F -2.0 °F 1.4 °F 57% 29.85 in 5.0 mi WNW 16.1 mph 26.5 mph N/A   Haze
3:15 PM 14.0 °F -3.4 °F 1.4 °F 57% 29.86 in 5.0 mi NW 19.6 mph 25.3 mph N/A   Haze
3:35 PM 14.0 °F -3.4 °F 1.4 °F 57% 29.88 in 7.0 mi WNW 19.6 mph 26.5 mph N/A   Mostly Cloudy
3:55 PM 14.0 °F -3.9 °F 1.4 °F 57% 29.89 in 5.0 mi NW 20.7 mph 29.9 mph N/A   Haze
4:15 PM 14.0 °F -3.0 °F 1.4 °F 57% 29.90 in 7.0 mi WNW 18.4 mph 27.6 mph N/A   Scattered Clouds
4:35 PM 14.0 °F -1.4 °F 1.4 °F 57% 29.91 in 10.0 mi WNW 15.0 mph 23.0 mph N/A   Clear
4:55 PM 14.0 °F -1.4 °F 1.4 °F 57% 29.92 in 10.0 mi NW 15.0 mph 28.8 mph N/A   Scattered Clouds
5:15 PM 14.0 °F -2.5 °F 1.4 °F 57% 29.94 in 10.0 mi NW 17.3 mph 27.6 mph N/A   Mostly Cloudy
5:35 PM 12.2 °F -5.3 °F 1.4 °F 62% 29.96 in 7.0 mi NW 18.4 mph 27.6 mph N/A   Overcast
6:35 PM 12.2 °F -6.3 °F 1.4 °F 62% 30.01 in 5.0 mi NW 20.7 mph 26.5 mph N/A   Haze
6:55 PM 10.4 °F -5.4 °F -0.4 °F 62% 30.01 in 10.0 mi NW 13.8 mph 24.2 mph N/A   Mostly Cloudy
7:55 PM 8.6 °F -8.9 °F -0.4 °F 67% 30.04 in 10.0 mi NW 16.1 mph 21.9 mph N/A   Clear
8:15 PM 8.6 °F -7.0 °F -0.4 °F 67% 30.04 in 10.0 mi WNW 12.7 mph 21.9 mph N/A   Clear
8:35 PM 8.6 °F -8.3 °F -0.4 °F 67% 30.05 in 10.0 mi WNW 15.0 mph 23.0 mph N/A   Clear
8:55 PM 8.6 °F -8.3 °F -0.4 °F 67% 30.05 in 10.0 mi NW 15.0 mph 20.7 mph N/A   Clear
9:15 PM 8.6 °F -7.7 °F -0.4 °F 67% 30.06 in 10.0 mi NW 13.8 mph 20.7 mph N/A   Clear
9:35 PM 8.6 °F -9.5 °F -0.4 °F 67% 30.06 in 10.0 mi NW 17.3 mph - N/A   Clear
9:55 PM 8.6 °F -8.3 °F -0.4 °F 67% 30.07 in 10.0 mi WNW 15.0 mph 19.6 mph N/A   Clear
10:15 PM 8.6 °F -7.7 °F -0.4 °F 67% 30.08 in 10.0 mi WNW 13.8 mph 18.4 mph N/A   Clear
10:35 PM 8.6 °F -7.0 °F -0.4 °F 67% 30.09 in 10.0 mi WNW 12.7 mph 19.6 mph N/A   Clear
10:55 PM 8.6 °F -8.3 °F -0.4 °F 67% 30.09 in 10.0 mi WNW 15.0 mph 20.7 mph N/A   Clear
11:15 PM 8.6 °F -7.0 °F -0.4 °F 67% 30.09 in 10.0 mi WNW 12.7 mph 18.4 mph N/A   Clear
11:35 PM 8.6 °F -7.0 °F -0.4 °F 67% 30.10 in 10.0 mi NW 12.7 mph 18.4 mph N/A   Clear
11:55 PM 8.6 °F -5.5 °F -0.4 °F 67% 30.10 in 10.0 mi NW 10.4 mph 16.1 mph N/A   Clear